TimeEST,TemperatureF,Dew PointF,Humidity,Sea Level PressureIn,VisibilityMPH,Wind Direction,Wind SpeedMPH,Gust SpeedMPH,PrecipitationIn,Events,Conditions,WindDirDegrees,DateUTC
12:53 AM,57.0,50.0,77,30.00,10.0,North,5.8,-,N/A,,Overcast,350,2013-02-16 05:53:00
1:53 AM,57.0,50.0,77,29.99,10.0,North,3.5,-,N/A,,Mostly Cloudy,10,2013-02-16 06:53:00
2:53 AM,55.9,48.0,75,29.98,10.0,North,5.8,-,N/A,,Mostly Cloudy,10,2013-02-16 07:53:00
3:53 AM,53.1,45.0,74,29.98,10.0,North,6.9,-,N/A,,Mostly Cloudy,350,2013-02-16 08:53:00
4:53 AM,52.0,45.0,77,29.98,10.0,North,4.6,-,N/A,,Scattered Clouds,10,2013-02-16 09:53:00
5:53 AM,53.1,46.0,77,29.98,10.0,North,5.8,-,N/A,,Scattered Clouds,10,2013-02-16 10:53:00
6:53 AM,53.6,46.4,77,29.98,10.0,North,3.5,-,N/A,,Scattered Clouds,360,2013-02-16 11:53:00
7:53 AM,54.0,46.0,75,29.98,10.0,North,3.5,-,N/A,,Mostly Cloudy,10,2013-02-16 12:53:00
8:53 AM,57.9,48.0,70,29.99,10.0,NNW,3.5,-,N/A,,Overcast,340,2013-02-16 13:53:00
9:53 AM,63.0,48.0,58,30.01,10.0,Variable,5.8,-,N/A,,Scattered Clouds,0,2013-02-16 14:53:00
10:53 AM,64.9,44.1,47,30.02,10.0,West,16.1,21.9,N/A,,Mostly Cloudy,270,2013-02-16 15:53:00
11:53 AM,66.0,43.0,43,30.01,10.0,West,13.8,21.9,N/A,,Mostly Cloudy,280,2013-02-16 16:53:00
12:53 PM,66.9,45.0,45,30.00,10.0,West,17.3,24.2,N/A,,Overcast,280,2013-02-16 17:53:00
1:53 PM,64.0,46.9,54,29.99,10.0,WNW,16.1,31.1,0.00,Rain,Light Rain,300,2013-02-16 18:53:00
2:53 PM,62.1,44.1,52,30.01,10.0,NNW,18.4,28.8,0.00,,Scattered Clouds,330,2013-02-16 19:53:00
3:53 PM,59.0,43.0,55,30.02,10.0,NW,19.6,29.9,N/A,,Mostly Cloudy,320,2013-02-16 20:53:00
4:53 PM,57.9,41.0,53,30.02,10.0,NW,15.0,26.5,N/A,,Scattered Clouds,310,2013-02-16 21:53:00
5:53 PM,55.9,41.0,57,30.04,10.0,WNW,12.7,21.9,N/A,,Mostly Cloudy,300,2013-02-16 22:53:00
6:53 PM,55.9,36.0,47,30.05,10.0,NW,18.4,24.2,N/A,,Scattered Clouds,310,2013-02-16 23:53:00
7:53 PM,57.0,37.0,47,30.07,10.0,NW,16.1,24.2,N/A,,Mostly Cloudy,310,2013-02-17 00:53:00
8:53 PM,55.9,36.0,47,30.09,10.0,NW,13.8,24.2,N/A,,Mostly Cloudy,310,2013-02-17 01:53:00
9:53 PM,55.0,33.1,43,30.12,10.0,NW,16.1,28.8,N/A,,Scattered Clouds,310,2013-02-17 02:53:00
10:53 PM,55.0,28.9,37,30.14,10.0,NW,15.0,-,N/A,,Scattered Clouds,310,2013-02-17 03:53:00
11:53 PM,52.0,33.1,49,30.16,10.0,North,16.1,-,N/A,,Partly Cloudy,350,2013-02-17 04:53:00